Weather History for Clayton Lake, ME

Change the Weather History Date:

Monday, January 21, 2013

  Actual Average Record
Temperature  
Mean Temperature -4 °F -  
Max Temperature 3 °F 16 °F 39 °F (2006)
Min Temperature -12 °F -7 °F -97 °F (2000)
Degree Days  
Heating Degree Days 70    
Moisture  
Dew Point -12 °F    
Average Humidity 70    
Maximum Humidity 82    
Minimum Humidity 55    
Precipitation  
Precipitation 0.00 in - - ()
Sea Level Pressure  
Sea Level Pressure 29.94 in    
Wind  
Wind Speed 6 mph (SW)    
Max Wind Speed 12 mph    
Max Gust Speed 25 mph    
Averages and records for this station are not official NWS values.
T = Trace of Precipitation, MM = Missing Value Source: NWS Daily Summary

Daily Weather History Graph

Daily Weather History Graph

Search for Another Location

Airport:

Trip Planner

Search our weather history database for the weather conditions in past years. The results will help you decide how hot, cold, wet, or windy it might be!

Date:

Astronomy

Jan. 21, 2013 Rise Set
Actual Time 7:13 AM EST 4:26 PM EST
Civil Twilight 6:40 AM EST 4:59 PM EST
Nautical Twilight 6:03 AM EST 5:36 PM EST
Astronomical Twilight 5:27 AM EST 6:12 PM EST
Moon 12:02 PM EST 2:39 AM EST
Length of Visible Light 10h 19m
Length of Day
9h 12m
Waxing Gibbous, 75% of the Moon is Illuminated
Jan 21
Waxing Gibbous
Jan 26
Full
Feb 3
Last Quarter
Feb 10
New
Feb 17
First Quarter

Hourly Weather History & Observations

Time (EST) Temp. Windchill Dew Point Humidity Pressure Visibility Wind Dir Wind Speed Gust Speed Precip Events Conditions
12:25 AM 0.3 °F -11.2 °F -7.2 °F 70% 29.73 in - Variable 5.8 mph 21.9 mph N/A   Unknown
1:25 AM -0.4 °F -17.6 °F -7.8 °F 71% 29.75 in - WSW 11.5 mph 24.2 mph N/A   Unknown
2:25 AM -2.6 °F -17.3 °F -10.1 °F 70% 29.79 in - SW 8.1 mph 18.4 mph N/A   Unknown
3:25 AM -3.6 °F -17.3 °F -10.8 °F 71% 29.80 in - SW 6.9 mph 18.4 mph N/A   Unknown
4:25 AM -4.5 °F -19.7 °F -12.1 °F 70% 29.83 in - WSW 8.1 mph 25.3 mph N/A   Unknown
5:25 AM -5.6 °F -22.2 °F -12.8 °F 71% 29.85 in - SW 9.2 mph 20.7 mph N/A   Unknown
6:25 AM -6.5 °F -20.8 °F -13.7 °F 71% 29.88 in - Variable 6.9 mph 15.0 mph N/A   Unknown
7:25 AM -8.0 °F -19.2 °F -14.8 °F 72% 29.92 in - Variable 4.6 mph - N/A   Unknown
8:26 AM -6.0 °F -16.9 °F -14.1 °F 68% 29.96 in - Variable 4.6 mph 18.4 mph N/A   Unknown
9:25 AM -3.8 °F -17.5 °F -13.2 °F 64% 29.98 in - SW 6.9 mph 19.6 mph N/A   Unknown
10:25 AM -0.6 °F -12.2 °F -11.4 °F 60% 29.99 in - Variable 5.8 mph 15.0 mph N/A   Unknown
11:25 AM 0.9 °F -11.9 °F -11.6 °F 56% 29.98 in - SW 6.9 mph 18.4 mph N/A   Unknown
12:26 PM 2.1 °F -10.4 °F -10.7 °F 55% 29.98 in - Variable 6.9 mph 18.4 mph N/A   Unknown
1:25 PM 3.6 °F -8.7 °F -9.4 °F 55% 29.98 in - Variable 6.9 mph 18.4 mph N/A   Unknown
2:25 PM 2.7 °F -8.4 °F -9.6 °F 57% 29.99 in - Variable 5.8 mph 18.4 mph N/A   Unknown
3:28 PM 2.5 °F -8.6 °F -8.5 °F 60% 29.98 in - Variable 5.8 mph 13.8 mph N/A   Unknown
4:25 PM 0.3 °F - -9.2 °F 64% 29.99 in - Variable 2.3 mph - 0.00 in   Unknown
5:25 PM -4.5 °F - -9.9 °F 78% 29.99 in - Calm Calm - N/A   Unknown
6:26 PM -7.6 °F - -12.1 °F 81% 30.00 in - Calm Calm - N/A   Unknown
7:25 PM -9.2 °F - -13.5 °F 81% 30.02 in - Calm Calm - N/A   Unknown
8:25 PM -11.4 °F - -15.5 °F 82% 30.02 in - Calm Calm - N/A   Unknown
9:25 PM -12.5 °F - -16.8 °F 81% 30.03 in - Calm Calm - N/A   Unknown
10:28 PM -11.2 °F - -15.5 °F 81% 30.01 in - Calm Calm - N/A   Unknown
11:25 PM -11.6 °F - -15.9 °F 81% 30.00 in - Calm Calm - N/A   Unknown